Location: *
(46.1866°S, 178.5290°W)
Time: 09:41:48
(UTC+00:00)

Cosmos 1461 - Pass Details

Date: 04 October 2021
Orbit: 520 x 642 km, 65.0° (Epoch: 20 October)

Event Time Altitude Azimuth Distance (km) Brightness Sun altitude
Rises 12:56:20 0° 210° (SSW) 2,904 6.9 -36.7°
Reaches altitude 10° 13:01:09 10° 165° (SSE) 2,030 6.4 -36.4°
Maximum altitude 13:01:37 10° 159° (SSE) 2,024 6.4 -36.3°
Drops below altitude 10° 13:02:04 10° 153° (SSE) 2,035 6.5 -36.3°
Sets 13:06:58 0° 108° (ESE) 2,963 7.1 -35.9°
